Date String (YYYY-MM-DD hh:mm:ss) UTC,Instrument flags,Ambient pressure (hPa),Sample flow (lpm),Bypass flow (lpm),Sample temperature (°C),Ambient temperature (°C),ASC tube jacket temperature (°C),LED temperature (°C),Box temperature (°C),Sample RH (%),Span deviation,Mass concentration (μg/m³),Mass concentration (μg/m³),Mass concentration (μg/m³)
DateTimeUTC,F1_M11,P_M11,Q1_M11,Q2_M11,T1_M11,T2_M11,T3_M11,T4_M11,T5_M11,U1_M11,ZSPAN_M11,X0_M11,X2_M11,X1_M11
2022-02-28 21:00:00,,0828.9,5.00,0.00,27.5,26.9,00.0,36.4,29.4,10.6,0000.0,0017.48,0006.51,0005.72
2022-02-28 21:01:00,,0828.9,4.98,0.00,27.6,26.9,00.0,36.4,29.4,10.2,0000.0,0018.15,0006.50,0005.77
2022-02-28 21:02:00,,0828.9,5.02,0.00,27.6,27.0,00.0,36.4,29.4,10.3,0000.0,0017.80,0006.54,0005.83
2022-02-28 21:03:00,,0828.9,4.99,0.00,27.6,27.0,00.0,36.4,29.5,10.2,0000.0,0017.11,0006.55,0005.86
2022-02-28 21:04:00,,0828.9,5.00,0.00,27.6,27.0,00.0,36.4,29.5,10.2,0000.0,0015.63,0006.56,0005.90
2022-02-28 21:05:00,,0828.9,5.00,0.00,27.6,27.0,00.0,36.5,29.5,10.1,0000.0,0015.33,0006.57,0005.92
2022-02-28 21:06:00,,0828.9,5.00,0.00,27.6,27.0,00.0,36.5,29.5,10.2,0000.0,0014.36,0006.56,0005.92
2022-02-28 21:07:00,,0828.9,5.00,0.00,27.7,27.0,00.0,36.5,29.5,10.2,0000.0,0013.96,0006.57,0005.92
2022-02-28 21:08:00,,0828.9,5.00,0.00,27.7,27.1,00.0,36.5,29.5,10.2,0000.0,0014.00,0006.58,0005.90
2022-02-28 21:09:00,,0828.9,5.00,0.00,27.7,27.1,00.0,36.5,29.6,10.4,0000.0,0013.92,0006.53,0005.88
2022-02-28 21:10:00,,0828.9,5.00,0.00,27.7,27.1,00.0,36.5,29.6,10.4,0000.0,0014.24,0006.48,0005.84
2022-02-28 21:11:00,,0829.0,5.00,0.00,27.7,27.1,00.0,36.6,29.6,10.2,0000.0,0014.16,0006.45,0005.80
2022-02-28 21:12:00,,0829.0,5.00,0.00,27.8,27.1,00.0,36.6,29.6,10.2,0000.0,0012.75,0006.39,0005.74
2022-02-28 21:13:00,,0828.9,4.99,0.00,27.8,27.2,00.0,36.6,29.7,10.5,0000.0,0012.20,0006.35,0005.68
2022-02-28 21:14:00,,0829.0,5.00,0.00,27.8,27.2,00.0,36.6,29.7,10.2,0000.0,0012.11,0006.30,0005.62
2022-02-28 21:15:00,,0829.0,5.00,0.00,27.8,27.2,00.0,36.6,29.7,10.3,0000.0,0012.30,0006.27,0005.57
2022-02-28 21:16:00,,0828.9,5.00,0.00,27.8,27.2,00.0,36.7,29.7,10.5,0000.0,0012.28,0006.28,0005.56
2022-02-28 21:17:00,,0829.0,4.99,0.00,27.8,27.2,00.0,36.7,29.7,10.1,0000.0,0012.95,0006.28,0005.54
2022-02-28 21:18:00,,0828.9,5.00,0.00,27.9,27.3,00.0,36.7,29.8,10.0,0000.0,0013.12,0006.29,0005.52
2022-02-28 21:19:00,,0829.0,5.00,0.00,27.9,27.3,00.0,36.7,29.8,09.8,0000.0,0013.15,0006.29,0005.53
2022-02-28 21:20:00,,0829.0,5.01,0.00,27.9,27.3,00.0,36.7,29.8,09.7,0000.0,0013.68,0006.31,0005.54
2022-02-28 21:21:00,,0829.0,4.99,0.00,27.9,27.3,00.0,36.8,29.8,09.4,0000.0,0013.34,0006.36,0005.58
2022-02-28 21:22:00,,0829.0,4.99,0.00,27.9,27.3,00.0,36.8,29.8,09.6,0000.0,0013.24,0006.42,0005.63
2022-02-28 21:23:00,,0829.0,5.00,0.00,28.0,27.3,00.0,36.8,29.8,09.3,0000.0,0013.19,0006.44,0005.68
2022-02-28 21:24:00,,0829.0,5.00,0.00,28.0,27.3,00.0,36.8,29.9,09.4,0000.0,0012.83,0006.47,0005.73
2022-02-28 21:25:00,,0829.0,5.00,0.00,28.0,27.3,00.0,36.8,29.9,09.6,0000.0,0013.19,0006.51,0005.78
2022-02-28 21:26:00,,0828.9,5.00,0.00,28.0,27.4,00.0,36.8,29.9,09.3,0000.0,0013.34,0006.62,0005.86
2022-02-28 21:27:00,,0828.8,5.00,0.00,28.0,27.4,00.0,36.8,29.9,09.2,0000.0,0013.79,0006.72,0005.95
2022-02-28 21:28:00,,0829.2,5.00,0.00,28.0,27.4,00.0,36.9,29.9,09.1,0000.0,0013.47,0006.83,0006.05
2022-02-28 21:29:00,,0828.9,5.00,0.00,28.0,27.4,00.0,36.9,29.9,09.2,0000.0,0013.56,0006.89,0006.14
2022-02-28 21:30:00,,0828.7,5.00,0.00,28.1,27.4,00.0,36.9,29.9,09.1,0000.0,0013.83,0006.94,0006.21
2022-02-28 21:31:00,,0828.7,5.01,0.00,28.1,27.4,00.0,36.9,30.0,09.0,0000.0,0013.48,0007.07,0006.32
2022-02-28 21:32:00,,0828.7,4.99,0.00,28.1,27.4,00.0,36.9,30.0,09.0,0000.0,0013.48,0007.16,0006.43
2022-02-28 21:33:00,,0828.7,4.99,0.00,28.1,27.5,00.0,36.9,30.0,09.0,0000.0,0013.83,0007.26,0006.55
2022-02-28 21:34:00,,0828.7,4.99,0.00,28.1,27.5,00.0,37.0,30.0,08.9,0000.0,0014.24,0007.40,0006.67
2022-02-28 21:35:00,,0828.7,5.00,0.00,28.1,27.5,00.0,37.0,30.0,08.9,0000.0,0014.61,0007.55,0006.79
2022-02-28 21:36:00,,0828.7,5.00,0.00,28.2,27.5,00.0,37.0,30.0,09.4,0000.0,0015.28,0007.73,0006.94
2022-02-28 21:37:00,,0828.9,5.01,0.00,28.2,27.5,00.0,37.0,30.0,09.3,0000.0,0015.45,0007.87,0007.04
2022-02-28 21:38:00,,0829.0,5.00,0.00,28.2,27.6,00.0,37.0,30.0,09.4,0000.0,0015.46,0007.88,0007.09
2022-02-28 21:39:00,,0829.2,5.00,0.00,28.2,27.6,00.0,37.0,30.1,09.5,0000.0,0015.17,0007.89,0007.11
2022-02-28 21:40:00,,0829.4,4.99,0.00,28.2,27.6,00.0,37.0,30.1,09.4,0000.0,0015.22,0007.95,0007.17
2022-02-28 21:41:00,,0829.3,5.01,0.00,28.2,27.6,00.0,37.1,30.1,09.1,0000.0,0015.23,0008.09,0007.28
2022-02-28 21:42:00,,0828.8,5.01,0.00,28.3,27.6,00.0,37.1,30.2,09.0,0000.0,0015.32,0008.17,0007.35
2022-02-28 21:43:00,,0828.8,4.99,0.00,28.3,27.6,00.0,37.1,30.2,09.2,0000.0,0015.72,0008.27,0007.41
2022-02-28 21:44:00,,0828.7,4.99,0.00,28.3,27.6,00.0,37.1,30.1,09.2,0000.0,0015.56,0008.31,0007.44
2022-02-28 21:45:00,,0828.7,4.99,0.00,28.3,27.7,00.0,37.1,30.2,09.4,0000.0,0015.48,0008.29,0007.44
2022-02-28 21:46:00,,0828.7,5.00,0.00,28.3,27.7,00.0,37.1,30.2,09.6,0000.0,0016.14,0008.27,0007.42
2022-02-28 21:47:00,,0828.7,5.00,0.00,28.3,27.7,00.0,37.1,30.2,09.3,0000.0,0016.15,0008.25,0007.39
2022-02-28 21:48:00,,0828.7,5.01,0.00,28.3,27.7,00.0,37.2,30.2,09.4,0000.0,0016.30,0008.23,0007.37
2022-02-28 21:49:00,,0828.8,5.00,0.00,28.4,27.7,00.0,37.2,30.2,09.5,0000.0,0015.90,0008.24,0007.39
2022-02-28 21:50:00,,0828.6,5.00,0.00,28.4,27.7,00.0,37.2,30.2,09.3,0000.0,0016.84,0008.28,0007.43
2022-02-28 21:51:00,,0828.7,4.99,0.00,28.4,27.7,00.0,37.2,30.3,09.3,0000.0,0017.24,0008.28,0007.43
2022-02-28 21:52:00,,0828.7,5.00,0.00,28.4,27.7,00.0,37.2,30.3,09.3,0000.0,0017.82,0008.22,0007.41
2022-02-28 21:53:00,,0828.7,5.00,0.00,28.4,27.7,00.0,37.2,30.2,09.5,0000.0,0018.28,0008.20,0007.36
2022-02-28 21:54:00,,0828.7,5.00,0.00,28.4,27.7,00.0,37.3,30.3,09.2,0000.0,0018.74,0008.19,0007.32
2022-02-28 21:55:00,,0828.7,5.00,0.00,28.4,27.8,00.0,37.3,30.3,09.3,0000.0,0018.71,0008.17,0007.29
2022-02-28 21:56:00,,0828.7,5.01,0.00,28.4,27.8,00.0,37.3,30.3,09.0,0000.0,0018.82,0008.19,0007.29
2022-02-28 21:57:00,,0828.7,5.00,0.00,28.5,27.8,00.0,37.3,30.3,09.0,0000.0,0019.31,0008.21,0007.30
2022-02-28 21:58:00,,0828.6,5.01,0.00,28.5,27.8,00.0,37.3,30.3,08.9,0000.0,0018.94,0008.18,0007.29
2022-02-28 21:59:00,,0828.5,5.01,0.00,28.5,27.8,00.0,37.3,30.3,09.1,0000.0,0018.63,0008.15,0007.28
